EW4189 Weather Reports


time (UTC)temp
F
wind
direction
speed
knots
gust
knots
rain 1hr
in
rain 24hr
in
rain mn
in
humidity
%
barometer
mb
20260505184041 72 360 8.7 15.6 0.00 0.00 0.00 35 1012.1
20260505183540 72 360 10.4 15.6 0.00 0.00 0.00 36 1012.2
20260505183054 71 340 7.0 14.8 0.00 0.00 0.00 40 1012.2
20260505182542 70 321 10.4 14.8 0.00 0.00 0.00 38 1012.1
20260505182046 70 337 8.7 14.8 0.00 0.00 0.00 37 1012.1
20260505181555 70 317 9.6 14.8 0.00 0.00 0.00 40 1012.1
20260505181042 71 315 7.8 13.0 0.00 0.00 0.00 41 1012.1
20260505180542 72 20 7.0 13.0 0.00 0.00 0.00 34 1012.1
20260505180057 71 20 7.0 13.0 0.00 0.00 0.00 42 1012.2
20260505175543 71 10 8.7 12.2 0.00 0.00 0.00 37 1012.2
20260505175043 70 5 7.8 12.2 0.00 0.00 0.00 43 1012.2
20260505174552 70 317 7.8 12.2 0.00 0.00 0.00 43 1012.2
20260505174041 70 327 7.8 13.0 0.00 0.00 0.00 44 1012.2
20260505173541 70 346 7.8 13.9 0.00 0.00 0.00 45 1012.1
20260505173112 70 360 8.7 13.9 0.00 0.00 0.00 42 1012.2
20260505172542 70 312 7.0 13.9 0.00 0.00 0.00 42 1012.2
20260505172042 69 336 7.8 13.9 0.00 0.00 0.00 41 1012.1
20260505171608 70 61 8.7 13.0 0.00 0.00 0.00 44 1012.1
20260505171044 70 337 8.7 13.0 0.00 0.00 0.00 39 1012.2
20260505170542 69 348 7.8 13.0 0.00 0.00 0.00 46 1012.1
20260505170050 69 5 7.8 13.0 0.00 0.00 0.00 39 1012.1
20260505165542 69 348 8.7 13.0 0.00 0.00 0.00 45 1012.1
20260505165042 69 11 7.0 12.2 0.00 0.00 0.00 46 1012.0
20260505164552 69 31 7.8 13.9 0.00 0.00 0.00 47 1012.1
20260505164043 68 51 7.8 13.9 0.00 0.00 0.00 48 1012.0
20260505163543 68 55 7.8 12.2 0.00 0.00 0.00 47 1012.0
20260505163053 68 13 7.0 11.3 0.00 0.00 0.00 50 1012.0
20260505162542 67 35 7.0 13.9 0.00 0.00 0.00 49 1012.0
20260505162042 67 344 7.8 13.9 0.00 0.00 0.00 49 1012.0
20260505161556 67 17 8.7 12.2 0.00 0.00 0.00 49 1012.0
20260505161042 67 313 9.6 13.0 0.00 0.00 0.00 50 1011.9
20260505160544 67 311 8.7 13.9 0.00 0.00 0.00 47 1011.9
20260505153051 65 13 8.7 13.9 0.00 0.00 0.00 53 1011.8
20260505152542 64 344 8.7 12.2 0.00 0.00 0.00 54 1011.8
20260505152043 64 15 8.7 13.9 0.00 0.00 0.00 55 1011.7
20260505151553 63 331 8.7 13.9 0.00 0.00 0.00 55 1011.7
20260505151045 63 12 8.7 13.0 0.00 0.00 0.00 56 1011.6
20260505150542 63 346 7.8 13.0 0.00 0.00 0.00 57 1011.6
20260505150108 62 344 9.6 13.9 0.00 0.00 0.00 57 1011.6
20260505140542 58 350 7.8 13.0 0.00 0.00 0.00 59 1011.3
20260505124600 53 360 6.1 9.6 0.00 0.00 0.00 65 1010.7
20260505124047 53 344 6.1 9.6 0.00 0.00 0.00 65 1010.7
20260505123542 52 10 6.1 9.6 0.00 0.00 0.00 66 1010.6
20260505123104 52 5 6.1 8.7 0.00 0.00 0.00 66 1010.6
20260505122542 52 350 7.0 9.6 0.00 0.00 0.00 66 1010.6
20260505122046 52 5 7.0 9.6 0.00 0.00 0.00 66 1010.5
20260505121624 52 5 6.1 8.7 0.00 0.00 0.00 65 1010.4
20260505121044 53 11 6.1 10.4 0.00 0.00 0.00 65 1010.4
20260505120540 53 15 6.1 10.4 0.00 0.00 0.00 65 1010.4
20260505120051 53 360 7.0 10.4 0.00 0.00 0.00 65 1010.3
20260505115541 53 5 7.0 10.4 0.00 0.00 0.00 65 1010.2
20260505115042 53 5 6.1 10.4 0.00 0.00 0.00 65 1010.2
20260505114551 53 22 7.0 10.4 0.00 0.00 0.00 64 1010.2
20260505114044 53 10 7.0 11.3 0.00 0.00 0.00 64 1010.2
20260505113544 54 12 7.0 12.2 0.00 0.00 0.00 63 1010.1
20260505113055 54 340 7.0 12.2 0.00 0.00 0.00 63 1010.2
20260505112540 54 347 7.0 10.4 0.00 0.00 0.00 63 1010.1
20260505112043 54 348 7.0 10.4 0.00 0.00 0.00 63 1010.1
20260505111553 54 327 7.0 10.4 0.00 0.00 0.00 63 1010.1
20260505111046 54 349 7.0 10.4 0.00 0.00 0.00 63 1010.1
20260505110542 54 348 6.1 8.7 0.00 0.00 0.00 63 1010.0
20260505102041 48 17 3.5 6.1 0.00 0.00 0.00 78 1009.8
20260505101550 44 15 0.0 3.5 0.00 0.00 0.00 84 1009.8
20260505101042 43 0 0.0 2.6 0.00 0.00 0.00 83 1009.9
20260505100541 44 195 0.0 3.5 0.00 0.00 0.00 82 1009.9
20260505100150 43 0 0.9 3.5 0.00 0.00 0.00 84 1009.8
20260505095546 44 147 0.9 2.6 0.00 0.00 0.00 82 1009.7
20260505095046 43 143 0.9 2.6 0.00 0.00 0.00 84 1009.8
20260505094550 43 136 0.9 1.7 0.00 0.00 0.00 84 1009.7
20260505094042 44 136 0.9 1.7 0.00 0.00 0.00 82 1009.7
20260505093543 44 134 0.9 2.6 0.00 0.00 0.00 80 1009.7
20260505093052 44 138 0.9 3.5 0.00 0.00 0.00 80 1009.7
20260505092545 48 126 1.7 5.2 0.00 0.00 0.00 69 1009.7
20260505092042 57 115 1.7 5.2 0.00 0.00 0.00 58 1009.7
20260505091612 57 326 3.5 7.8 0.00 0.00 0.00 58 1009.7
20260505091042 58 328 3.5 7.8 0.00 0.00 0.00 59 1009.7
20260505090542 58 315 5.2 7.8 0.00 0.00 0.00 57 1009.7
20260505090059 58 315 4.3 7.8 0.00 0.00 0.00 58 1009.7
20260505085545 58 317 3.5 7.8 0.00 0.00 0.00 58 1009.7
20260505085041 58 331 4.3 7.0 0.00 0.00 0.00 57 1009.8
20260505084549 57 338 3.5 7.8 0.00 0.00 0.00 59 1009.7
20260505084044 57 338 4.3 7.8 0.00 0.00 0.00 58 1009.7
20260505083544 57 341 3.5 7.0 0.00 0.00 0.00 58 1009.8
20260505083054 58 338 3.5 7.0 0.00 0.00 0.00 58 1009.8
20260505082543 57 338 2.6 7.8 0.00 0.00 0.00 58 1009.8
20260505082042 58 337 4.3 7.8 0.00 0.00 0.00 57 1009.7
20260505081550 58 311 4.3 7.8 0.00 0.00 0.00 56 1009.8
20260505081044 58 323 3.5 7.0 0.00 0.00 0.00 57 1009.8
20260505080543 58 322 4.3 9.6 0.00 0.00 0.00 57 1009.9
20260505080053 59 329 7.0 9.6 0.00 0.00 0.00 52 1009.9
20260505075543 59 324 5.2 8.7 0.00 0.00 0.00 56 1009.8
20260505075043 59 342 5.2 9.6 0.00 0.00 0.00 51 1009.9
20260505074552 59 347 5.2 10.4 0.00 0.00 0.00 55 1009.8
20260505074045 59 335 6.1 12.2 0.00 0.00 0.00 55 1009.9
20260505073541 59 324 7.0 12.2 0.00 0.00 0.00 55 1009.8
20260505073059 59 350 7.8 12.2 0.00 0.00 0.00 54 1009.8
20260505072545 58 336 6.1 9.6 0.00 0.00 0.00 57 1009.8
20260505072045 57 350 3.5 7.8 0.00 0.00 0.00 56 1009.8
20260505071552 58 9 5.2 7.8 0.00 0.00 0.00 55 1009.8
20260505071042 59 13 4.3 7.8 0.00 0.00 0.00 53 1009.7
20260505070541 59 348 5.2 7.8 0.00 0.00 0.00 49 1009.7
20260505070058 57 328 4.3 7.8 0.00 0.00 0.00 58 1009.7
20260505065541 56 350 3.5 7.8 0.00 0.00 0.00 58 1009.6
20260505065042 56 13 5.2 7.8 0.00 0.00 0.00 58 1009.6
20260505064555 56 5 4.3 7.0 0.00 0.00 0.00 58 1009.7
20260505064043 56 9 4.3 7.8 0.00 0.00 0.00 58 1009.6
20260505063544 56 5 5.2 7.8 0.00 0.00 0.00 58 1009.5
20260505063054 56 5 3.5 7.0 0.00 0.00 0.00 58 1009.6
20260505062544 55 360 3.5 7.0 0.00 0.00 0.00 59 1009.6
20260505062041 55 15 3.5 7.0 0.00 0.00 0.00 59 1009.5
20260505061601 55 9 4.3 7.0 0.00 0.00 0.00 59 1009.6
20260505061043 55 5 5.2 7.0 0.00 0.00 0.00 58 1009.6
20260505060546 57 22 5.2 7.0 0.00 0.00 0.00 55 1009.6
20260505060056 58 26 4.3 7.8 0.00 0.00 0.00 48 1009.5
20260505055540 60 344 4.3 8.7 0.00 0.00 0.00 51 1009.5
20260505055044 60 326 5.2 10.4 0.00 0.00 0.00 52 1009.5
20260505054617 60 315 6.1 10.4 0.00 0.00 0.00 52 1009.4
20260505054040 60 338 7.0 10.4 0.00 0.00 0.00 51 1009.4
20260505053545 60 316 7.0 11.3 0.00 0.00 0.00 51 1009.4
20260505053053 60 317 7.0 12.2 0.00 0.00 0.00 51 1009.4
20260505052546 60 320 7.8 12.2 0.00 0.00 0.00 51 1009.4
20260505052043 60 314 8.7 12.2 0.00 0.00 0.00 51 1009.4
20260505051551 60 326 7.8 12.2 0.00 0.00 0.00 51 1009.4
20260505051041 59 323 7.0 9.6 0.00 0.00 0.00 52 1009.5
20260505050543 58 314 5.2 8.7 0.00 0.00 0.00 49 1009.6
20260505041606 62 343 4.3 12.2 0.00 0.00 0.00 44 1009.3
20260505041045 62 326 6.1 13.0 0.00 0.00 0.00 44 1009.2
20260505040546 63 360 6.1 13.0 0.00 0.00 0.00 44 1009.1
20260505035544 63 323 8.7 13.0 0.00 0.00 0.00 44 1008.9
20260505035045 63 338 8.7 13.0 0.00 0.00 0.00 44 1008.7
20260505034557 63 331 7.8 12.2 0.00 0.00 0.00 43 1008.7
20260505034046 63 327 7.0 13.0 0.00 0.00 0.00 43 1008.5
20260505033546 63 309 6.1 13.0 0.00 0.00 0.00 42 1008.5
20260505033053 64 344 7.0 12.2 0.00 0.00 0.00 40 1008.5
20260505032544 65 322 8.7 13.0 0.00 0.00 0.00 40 1008.4
20260505032047 65 331 8.7 13.0 0.00 0.00 0.00 40 1008.3
20260505031604 65 323 9.6 13.0 0.00 0.00 0.00 40 1008.2
20260505031045 66 317 8.7 13.9 0.00 0.00 0.00 40 1008.1
20260505030546 66 321 8.7 13.9 0.00 0.00 0.00 39 1008.1
20260505030104 66 317 8.7 13.9 0.00 0.00 0.00 40 1008.1
20260505025546 66 328 9.6 13.9 0.00 0.00 0.00 39 1008.0
20260505025044 66 328 8.7 14.8 0.00 0.00 0.00 40 1008.0
20260505024602 67 330 9.6 15.6 0.00 0.00 0.00 39 1007.9
20260505024045 67 297 10.4 15.6 0.00 0.00 0.00 34 1007.9
20260505023545 67 294 8.7 13.9 0.00 0.00 0.00 38 1007.9
20260505023059 68 304 9.6 13.9 0.00 0.00 0.00 38 1007.9
20260505022546 68 312 9.6 13.9 0.00 0.00 0.00 38 1007.8
20260505022045 69 288 9.6 15.6 0.00 0.00 0.00 37 1007.8
20260505021558 69 319 8.7 15.6 0.00 0.00 0.00 36 1007.8
20260505021044 70 319 9.6 17.4 0.00 0.00 0.00 36 1007.7
20260505020545 70 291 10.4 17.4 0.00 0.00 0.00 36 1007.6
20260505015545 71 311 8.7 13.9 0.00 0.00 0.00 37 1007.6
20260505015049 71 302 9.6 13.9 0.00 0.00 0.00 37 1007.6
20260505014553 71 310 8.7 13.0 0.00 0.00 0.00 36 1007.7
20260505014045 71 287 7.8 13.9 0.00 0.00 0.00 35 1007.6
20260505013551 71 298 9.6 13.9 0.00 0.00 0.00 29 1007.7
20260505013050 71 325 8.7 15.6 0.00 0.00 0.00 35 1007.7
20260505012544 71 316 9.6 16.5 0.00 0.00 0.00 37 1007.7
20260505012046 72 303 11.3 16.5 0.00 0.00 0.00 35 1007.8
20260505011551 72 297 8.7 17.4 0.00 0.00 0.00 35 1007.9
20260505011044 72 346 11.3 22.6 0.00 0.00 0.00 34 1007.7
20260505010546 73 300 11.3 22.6 0.00 0.00 0.00 35 1007.9
20260505010107 73 311 10.4 16.5 0.00 0.00 0.00 35 1007.9
20260505005545 73 338 9.6 18.2 0.00 0.00 0.00 33 1007.9
20260505005046 73 300 12.2 18.2 0.00 0.00 0.00 30 1007.9
20260505004552 73 321 10.4 16.5 0.00 0.00 0.00 35 1007.9
20260505004045 74 317 12.2 16.5 0.00 0.00 0.00 29 1007.9
20260505003545 74 329 11.3 16.5 0.00 0.00 0.00 32 1007.9
20260505003055 74 340 9.6 18.2 0.00 0.00 0.00 34 1007.9
20260505002546 74 310 11.3 18.2 0.00 0.00 0.00 31 1007.9
20260505002046 74 336 11.3 17.4 0.00 0.00 0.00 31 1007.9
20260505001553 74 327 12.2 20.0 0.00 0.00 0.00 30 1007.8
20260505001047 74 346 10.4 20.0 0.00 0.00 0.00 31 1007.9
20260505000545 74 325 12.2 20.0 0.00 0.00 0.00 30 1007.9
20260505000100 75 320 11.3 19.1 0.00 0.00 0.00 30 1007.9
20260504235547 75 336 11.3 19.1 0.00 0.00 0.00 29 1007.9
20260504235046 75 323 10.4 17.4 0.00 0.00 0.00 30 1007.9
20260504234551 75 329 11.3 18.2 0.00 0.00 0.00 24 1008.1
20260504234045 75 340 10.4 21.7 0.00 0.00 0.00 28 1008.0
20260504233548 75 337 12.2 21.7 0.00 0.00 0.00 28 1008.0
20260504233054 75 318 11.3 18.2 0.00 0.00 0.00 27 1008.0
20260504232546 75 330 11.3 20.0 0.00 0.00 0.00 27 1008.1
20260504232044 76 325 12.2 20.0 0.00 0.00 0.00 28 1008.1
20260504231552 77 10 10.4 18.2 0.00 0.00 0.00 28 1008.1
20260504231045 77 317 10.4 18.2 0.00 0.00 0.00 29 1008.1
20260504230545 76 5 11.3 19.1 0.00 0.00 0.00 28 1008.2
20260504230110 76 10 12.2 19.1 0.00 0.00 0.00 23 1008.2
20260504225548 76 340 11.3 19.1 0.00 0.00 0.00 27 1008.2
20260504225047 76 317 10.4 20.0 0.00 0.00 0.00 25 1008.3
20260504224601 77 321 11.3 20.0 0.00 0.00 0.00 28 1008.3
20260504224045 77 5 10.4 18.2 0.00 0.00 0.00 28 1008.4
20260504223544 77 319 10.4 16.5 0.00 0.00 0.00 28 1008.4
20260504223054 76 24 11.3 16.5 0.00 0.00 0.00 30 1008.5
20260504222545 77 307 10.4 20.0 0.00 0.00 0.00 33 1008.6
20260504222043 77 336 10.4 20.0 0.00 0.00 0.00 30 1008.5
20260504221552 77 308 10.4 19.1 0.00 0.00 0.00 31 1008.6
20260504221045 77 338 10.4 18.2 0.00 0.00 0.00 33 1008.6
20260504220545 77 333 9.6 17.4 0.00 0.00 0.00 31 1008.7
20260504215544 77 338 13.0 21.7 0.00 0.00 0.00 29 1008.8
20260504215045 77 329 9.6 18.2 0.00 0.00 0.00 30 1008.8
20260504214555 77 328 10.4 19.1 0.00 0.00 0.00 30 1008.7
20260504214045 77 320 11.3 19.1 0.00 0.00 0.00 30 1008.9
20260504213545 77 335 10.4 19.1 0.00 0.00 0.00 30 1008.7
20260504213101 77 11 12.2 18.2 0.00 0.00 0.00 30 1008.8
20260504212545 76 322 10.4 20.9 0.00 0.00 0.00 31 1008.8
20260504212045 77 311 11.3 20.9 0.00 0.00 0.00 32 1008.9
20260504211559 77 311 12.2 19.1 0.00 0.00 0.00 30 1008.9
20260504211043 77 318 12.2 19.1 0.00 0.00 0.00 27 1008.9
20260504210548 78 319 11.3 18.2 0.00 0.00 0.00 30 1009.0
20260504205546 77 335 12.2 18.2 0.00 0.00 0.00 31 1009.0
20260504205045 77 12 11.3 20.9 0.00 0.00 0.00 28 1009.0
20260504204559 76 319 13.0 20.9 0.00 0.00 0.00 30 1009.1
20260504204045 76 360 11.3 20.0 0.00 0.00 0.00 31 1009.1
20260504203545 77 336 13.9 20.9 0.00 0.00 0.00 30 1009.2
20260504203054 77 23 9.6 20.9 0.00 0.00 0.00 31 1009.0
20260504202545 77 360 8.7 20.9 0.00 0.00 0.00 30 1009.1
20260504202046 76 322 12.2 20.0 0.00 0.00 0.00 29 1009.1
20260504201557 76 311 10.4 21.7 0.00 0.00 0.00 27 1009.1
20260504201044 77 323 10.4 21.7 0.00 0.00 0.00 30 1009.2
20260504200542 77 312 12.2 18.2 0.00 0.00 0.00 27 1009.1
20260504200104 77 16 12.2 20.9 0.00 0.00 0.00 31 1009.3
20260504195544 77 336 10.4 20.9 0.00 0.00 0.00 31 1009.2
20260504195042 77 336 11.3 20.9 0.00 0.00 0.00 30 1009.2
20260504194557 76 303 13.0 19.1 0.00 0.00 0.00 30 1009.3
20260504194045 76 30 10.4 19.1 0.00 0.00 0.00 31 1009.3
20260504193543 76 333 10.4 18.2 0.00 0.00 0.00 31 1009.3
20260504193102 75 300 10.4 17.4 0.00 0.00 0.00 32 1009.4
20260504192541 75 290 11.3 17.4 0.00 0.00 0.00 30 1009.3
20260504192044 75 314 9.6 13.9 0.00 0.00 0.00 31 1009.5
20260504191612 76 360 7.0 14.8 0.00 0.00 0.00 31 1009.5
20260504191041 75 303 9.6 14.8 0.00 0.00 0.00 27 1009.5
20260504190541 76 5 8.7 13.9 0.00 0.00 0.00 33 1009.6
20260504190055 76 5 9.6 13.9 0.00 0.00 0.00 27 1009.5
20260504185542 75 13 6.1 15.6 0.00 0.00 0.00 33 1009.7
20260504185043 75 20 7.0 15.6 0.00 0.00 0.00 33 1009.8
20260504184552 74 15 7.8 13.9 0.00 0.00 0.00 33 1009.8